Miscellaneous Local Product
Issued by NWS Hastings, NE

Home | Current Version | Previous Version | Text Only | Print | Product List | Glossary On
Versions: 1 2 3 4 5 6 7 8 9 10 11 12 13 14 15 16 17 18 19 20 21 22 23 24 25 26 27 28 29 30 31 32 33 34 35 36 37 38 39 40 41 42 43 44 45 46 47 48 49 50
000
AXUS43 KGID 302202
MISGRI

GID CWA HOURLY WEATHER ROUNDUP
NATIONAL WEATHER SERVICE HASTINGS NE
400 PM CST FRI JAN 30 2015

NOTE: "FAIR" INDICATES FEW OR NO CLOUDS BELOW 12,000 FEET WITH NO
SIGNIFICANT WEATHER AND/OR OBSTRUCTIONS TO VISIBILITY.

...SOUTH CENTRAL NEBRASKA...

CITY           SKY/WX    TMP DP  RH WIND       PRES   REMARKS
GRAND ISLAND   CLOUDY    44  25  47 S13G22    30.27F
HASTINGS       CLOUDY    44  23  43 S14G20    30.27F
KEARNEY        CLOUDY    45  25  45 S17       30.24F
ORD            CLOUDY    45  24  43 S17G25    30.20F
YORK           CLOUDY    43  27  52 S14       30.30F
AURORA         CLOUDY    45  25  45 S14G22    30.28F
LEXINGTON      CLOUDY    46  26  45 S16       30.21F
HOLDREGE       CLOUDY    44  24  46 S15       30.24F
HEBRON         CLOUDY    44  23  44 S10       30.34F

...NEBRASKA PANHANDLE...

CITY           SKY/WX    TMP DP  RH WIND       PRES   REMARKS
CHADRON        PTSUNNY   51  25  36 NE10      30.12F
ALLIANCE       CLOUDY    46  27  47 N8        30.10F
SCOTTSBLUFF    CLOUDY    43  28  55 NW6       30.10F
SIDNEY         CLOUDY    46  28  49 N3        30.09F

...WESTERN AND NORTH CENTRAL NEBRASKA...

CITY           SKY/WX    TMP DP  RH WIND       PRES   REMARKS
VALENTINE      MOSUNNY   52  26  36 SW14      30.13S
AINSWORTH      MOSUNNY   51  23  33 S10G17    30.14S
ONEILL         MOSUNNY   46  28  49 S18       30.19S
BROKEN BOW     CLOUDY    46  27  47 S17G26    30.19F
IMPERIAL       CLOUDY    50  30  46 S22G30    30.13F
NORTH PLATTE   CLOUDY    47  27  45 S14       30.15F
MCCOOK         CLOUDY    48  29  47 S20G26    30.21S

...EASTERN NEBRASKA...

CITY           SKY/WX    TMP DP  RH WIND       PRES   REMARKS
NORFOLK        MOSUNNY   44  27  51 S21G28    30.24F
SO SIOUX CITY  MOSUNNY   39  27  62 S13       30.30F WCI  31
TEKAMAH        SUNNY     41  26  55 S16       30.33F
COLUMBUS       PTSUNNY   43  27  52 S16       30.30F
ALBION         PTSUNNY   44  26  47 S15       30.25F
OMAHA EPPLEY   PTSUNNY   36  24  62 S13       30.36F WCI  27
OFFUTT AFB     PTSUNNY   37  24  60 S10       30.35F WCI  29
MILLARD        MOSUNNY   38  25  59 S9        30.35F WCI  32
LINCOLN        CLOUDY    41  26  55 S14       30.35F
NEBRASKA CITY  PTSUNNY   38  20  49 S10       30.38F WCI  30
BEATRICE       PTSUNNY   41  26  55 S10       30.36F
FALLS CITY     PTSUNNY   39  23  52 S7        30.40F WCI  34

...NORTHERN KANSAS...

CITY           SKY/WX    TMP DP  RH WIND       PRES   REMARKS
GOODLAND       CLOUDY    45  28  51 S18       30.16F
HILL CITY      CLOUDY    46  25  43 S16       30.28S
NORTON         CLOUDY    45  21  39 S12G20    30.24
PHILLIPSBURG   CLOUDY    48  27  43 S9        30.29S
SMITH CENTER   MOSUNNY   43  25  49 S14       30.32S
BELOIT         PTSUNNY   45  25  45 S13       30.34F
HAYS           CLOUDY    45  23  42 S14G23    30.32S
RUSSELL        CLOUDY    43  26  51 S16       30.32R
CONCORDIA      CLOUDY    44  26  49 S14       30.34F
SALINA         CLOUDY    44  26  49 S12       30.39S
TOPEKA         PTSUNNY   41  21  44 SE8       30.42F



USA.gov is the U.S. government's official web portal to all federal, state and local government web resources and services.